Regional Weather Roundup
Issued by NWS

Home | Current Version | Previous Version | Text Only | Print | Product List | Glossary On
Versions: 1 2 3 4 5 6 7 8 9 10 11 12 13 14 15 16 17 18 19 20 21 22 23 24 25 26 27 28 29 30 31 32 33 34 35 36 37 38 39 40 41 42 43 44 45 46 47 48 49 50
000
ASUS42 KFFC 081003
RWRGA
WEATHER ROUNDUP FOR GEORGIA
NATIONAL WEATHER SERVICE PEACHTREE CITY GA
500 AM EST MON FEB 08 2016

NOTE: "FAIR" INDICATES FEW OR NO CLOUDS BELOW 12,000 FEET WITH NO
SIGNIFICANT WEATHER AND/OR OBSTRUCTIONS TO VISIBILITY.

* = USE WITH CAUTION. THE STATIONS MARKED WITH AN ASTERISK MAY NOT
REPORT WEATHER SUCH AS PRECIPITATION, FOG, OR THUNDER AND ARE NOT
QUALITY CONTROLLED BY NWS.

THE REMARK "TC" DENOTES TEMPERATURE READING IN DEGREES CELSIUS.

GAZ001>058-081100-
NORTH GEORGIA

CITY           SKY/WX    TMP DP  RH WIND       PRES   REMARKS
ATLANTA        PTCLDY    38  21  50 SW6       29.86F WCI  33
ATHENS         PTCLDY    36  23  59 W3        29.86F
CHAMBLEE       PTCLDY    36  23  59 SW3       29.86F
PEACHTREE CITY CLEAR     29  25  85 CALM      29.89F
ROME           PTCLDY    32  28  85 SW3       29.84F
WEST ATLANTA   CLEAR     36  23  59 SW5       29.86F WCI  32
GAINESVILLE    CLEAR     37  23  56 W7        29.85F WCI  32
CARTERSVILLE   MOCLDY    30  26  85 CALM      29.87F


CITY           SKY/WX    TMP DP  RH WIND       PRES   REMARKS
MARIETTA       MOCLDY    33  25  73 CALM      29.85F
BLAIRSVILLE*     N/A     26  17  67 CALM      29.83F
$$

GAZ059>098-102>109-081100-
CENTRAL GEORGIA

CITY           SKY/WX    TMP DP  RH WIND       PRES   REMARKS
AUGUSTA-BUSH   CLEAR     38  26  62 W6        29.90F WCI  33
AUGUSTA-DANIEL CLEAR     43  23  45 VRB3      29.89F
COLUMBUS       CLEAR     34  27  75 CALM      29.95F
MACON          CLEAR     32  28  85 CALM      29.92F
ROBINS AFB     CLEAR     36  27  70 S6        29.93F WCI  31


CITY           SKY/WX    TMP DP  RH WIND       PRES   REMARKS
LAGRANGE*      CLEAR     31  31 100 CALM      29.91F
SYLVANIA*      CLEAR     38  32  79 W3        29.93R
MILLEDGEVILLE* CLEAR     36  27  69 CALM      29.91F
$$

GAZ099>101-110>166-081100-
SOUTH GEORGIA

CITY           SKY/WX    TMP DP  RH WIND       PRES   REMARKS
SAVANNAH       CLEAR     35  28  75 W7        29.95F WCI  29
VALDOSTA       CLEAR     34  31  88 CALM      30.00F
ALMA           CLEAR     38  30  73 W3        29.97F
ST SIMONS      CLEAR     41  32  70 W6        29.98R
FT STEWART     CLEAR     36  30  80 SW5       29.93F WCI  32
ALBANY         CLEAR     33  28  81 CALM      30.01F
HUNTER AFB     CLEAR     36  30  78 SW6       29.93S WCI  32
MOODY AFB      CLEAR     38  29  71 SW5       29.98F WCI  34
BRUNSWICK      CLEAR     39  32  75 W3        29.99S


CITY           SKY/WX    TMP DP  RH WIND       PRES   REMARKS
BAINBRIDGE*    CLEAR     37  32  81 W6        30.02F WCI  33
MOULTRIE*      CLEAR     37  32  81 CALM      30.00F
VIDALIA*       CLEAR     36  32  87 W3        29.95S
WAYCROSS*      CLEAR     39  34  81 CALM      29.98F
DOUGLAS*       CLEAR     37  32  81 CALM      30.00S
$$



USA.gov is the U.S. government's official web portal to all federal, state and local government web resources and services.